Tracking 28790 objects as of 19-Apr-2024
HD Live streaming from Space Station
objects crossing your sky now

STARLINK-5925

Track STARLINK-5925 now!
10-day predictions
STARLINK-5925 is classified as:


NORAD ID: 55945
Int'l Code: 2023-037AH
Perigee: 577.1 km
Apogee: 581.2 km
Inclination: 70.0 °
Period: 96.1 minutes
Semi major axis: 6950 km
RCS: Unknown
Launch date: March 17, 2023
Source: United States (US)
Launch site: AIR FORCE WESTERN TEST RANGE (AFWTR)
Your satellite tracking list
Your tracking list is empty




NASA's NSSDC Master Catalog

Two Line Element Set (TLE):
1 55945U 23037AH  24109.73509920  .00000759  00000-0  71360-4 0  9996
2 55945  70.0011 223.9971 0002933 261.4472  98.6355 14.98341878 60976
Source of the keplerian elements: AFSPC